Location: Izdebno
(52.6670°N, 16.2170°E)
Time: 05:01:18
(UTC+02:00)

A-11 Canister half - Pass Details

Date: 13 February 2023
Orbit: 1526 x 1682 km, 47.3° (Epoch: 25 March)

Event Time Altitude Azimuth Distance (km) Brightness Sun altitude
Rises 02:16:38 0° 204° (SSW) 4,702 - -43.4°
Reaches altitude 10° 02:20:12 10° 194° (SSW) 3,707 - -43.0°
Maximum altitude 02:27:44 29° 139° (SE) 2,526 - -42.1°
Exits shadow 02:29:10 28° 125° (SE) 2,579 10.2 -42.0°
Drops below altitude 10° 02:35:14 10° 85° (E) 3,700 11.5 -41.3°
Sets 02:38:47 0° 75° (ENE) 4,692 12.3 -40.9°
